星链-35062(STARLINK-35062)

导读

STARLINK-35062是美国SpaceX星链互联网星座的一员,于北京时间2025年9月18日发射升空。星链计划旨在构建全球卫星互联网,为地面提供高速低延迟网络覆盖,该卫星入轨后将补充完善星链星座的全球服务能力,拓展卫星互联网在通信、导航等领域的应用覆盖范围。

基本信息
目录编号:
65643
目录名称:
STARLINK-35062
国际标识:
2025-210X
轨道中心:
EARTH
卫星名称:
星链-35062
卫星全名:
星链-35062(STARLINK-35062)
卫星状态:
在轨 (已飞行351 天)
发射日期:
2025-09-18 UTC
国别 :
美国 (US)
星等 :
--
轨道信息
数据来源 国际轨道数据
星历时间: 2026-09-04T05:16:59+0800
21小时前
查看轨道信息
半长轴: 6840.763km
偏心率: 0.0001422
轨道倾角: 53.157°
近地点辐角 77.185°
升交点赤经 195.129°
平近点角 282.931°
近地点: 461.653km
远地点: 463.599km
周期: 93.846分钟
每日圈数: 15.344262
详细信息
固有亮度:
5
最大亮度:
2.5
卫星平台:
Starlink V1.0
覆盖范围:
全球
运营商:
太空探索技术公司
运营商所在国:
美国
制造商(研发单位):
太空探索技术公司
制造商所在国:
美国
使用方式:
暂无
卫星简介
Starlink 计划是 SpaceX 推出的全球卫星互联网项目,通过发射低轨道卫星,为全球尤其是偏远地区提供高速、低延迟的互联网服务。自 2019 年起,Starlink 已部署数千颗卫星,旨在缩小全球数字鸿沟,推动互联网普及。该项目还为军事、航空等行业提供通信支持,带来广泛经济效益。
2D轨道图
3D轨道图
轨道高度分析图
轨道倾角分析图
轨道综合分析图
查看轨道综合分析图
交会数据列表
事件ID 空间交会对象 最接近时刻(TCA) 交会距离 交会风险概率(CRP) 交会风险指数(CRI) 操作
CDM_260831-001506-488106-564321
OBJECT F (64881)
2026-08-31T
00:15:56+0000
1.206 km
极远距离
7.324926E-6 低风险 0.52
CDM_260906-094005-315506-564321
2026-09-06T
09:40:00+0000
1.943 km
极远距离
2.442911E-6 低风险 0.43
CDM_260906-221706-547306-564321
2026-09-06T
22:17:29+0000
1.790 km
极远距离
1.932058E-6 低风险 0.41
CDM_260906-011105-363106-564322
2026-09-06T
01:11:19+0000
2.216 km
极远距离
1.188861E-6 低风险 0.37
CDM_260906-204306-547306-564321
2026-09-06T
20:43:42+0000
2.612 km
极远距离
8.717897E-7 极低风险 0.34